West Lebanon, NH

12:48 AM EDT on September 29, 2016 (GMT -0400)
Lebanon Municipal

Weather History for KLEB - August, 2014

Change the Weather History Date:

Tuesday, August 12, 2014

  Actual Average Record
Temperature  
Mean Temperature 68 °F -  
Max Temperature 81 °F 78 °F 95 °F (1944)
Min Temperature 55 °F 56 °F 42 °F (1989)
Cooling Degree Days 2    
Growing Degree Days 18 (Base 50)    
Moisture  
Dew Point 56 °F    
Average Humidity 81    
Maximum Humidity 93    
Minimum Humidity 45    
Precipitation  
Precipitation 0.00 in - - ()
Sea Level Pressure  
Sea Level Pressure 30.07 in    
Wind  
Wind Speed 1 mph (South)    
Max Wind Speed 13 mph    
Max Gust Speed 23 mph    
Visibility 5 miles    
Events Fog    
Averages and records for this station are not official NWS values.
T = Trace of Precipitation, MM = Missing Value Source: NWS Daily Summary

Daily Weather History Graph

Daily Weather History Graph

Search for Another Location

Airport or City:

Trip Planner

Search our weather history database for the weather conditions in past years. The results will help you decide how hot, cold, wet, or windy it might be!

Date:

Astronomy

Aug. 12, 2014 Rise Set
Actual Time 5:50 AM EDT 7:57 PM EDT
Civil Twilight 5:19 AM EDT 8:28 PM EDT
Nautical Twilight 4:40 AM EDT 9:07 PM EDT
Astronomical Twilight 3:57 AM EDT 9:49 PM EDT
Moon 8:55 PM EDT (8/12) 8:10 AM EDT (8/12)
Length of Visible Light 15h 09m
Length of Day
14h 06m
Waning Gibbous, 95% of the Moon is Illuminated
Aug 12
Waning Gibbous
Aug 17
Last Quarter
Aug 25
New
Sep 2
First Quarter
Sep 8
Full

Hourly Weather History & Observations

Time (EDT) Temp. Heat Index Dew Point Humidity Pressure Visibility Wind Dir Wind Speed Gust Speed Precip Events Conditions
12:53 AM 60.1 °F - 57.0 °F 90% 30.08 in 9.0 mi Calm Calm - N/A   Clear
1:53 AM 60.1 °F - 55.9 °F 86% 30.08 in 6.0 mi Calm Calm - N/A   Clear
2:04 AM 57.9 °F - 55.0 °F 90% 30.11 in 1.8 mi Calm Calm - N/A   Clear
2:12 AM 59.0 °F - 55.0 °F 87% 30.11 in 1.5 mi Calm Calm - N/A   Partly Cloudy
2:29 AM 59.0 °F - 55.9 °F 90% 30.11 in 1.0 mi Calm Calm - N/A   Mist
2:39 AM 59.0 °F - 55.9 °F 90% 30.11 in 1.8 mi Calm Calm - N/A   Partly Cloudy
2:42 AM 59.0 °F - 55.9 °F 90% 30.10 in 3.0 mi Calm Calm - N/A   Partly Cloudy
2:53 AM 57.9 °F - 55.0 °F 90% 30.08 in 5.0 mi Calm Calm - N/A   Clear
3:01 AM 57.0 °F - 54.0 °F 89% 30.10 in 1.8 mi Calm Calm - N/A   Clear
3:14 AM 57.9 °F - 55.0 °F 90% 30.10 in 3.0 mi Calm Calm - N/A   Clear
3:34 AM 57.0 °F - 53.1 °F 87% 30.10 in 1.5 mi Calm Calm - N/A   Clear
3:51 AM 57.2 °F - 53.6 °F 88% 30.10 in 3.0 mi Calm Calm - N/A   Clear
3:53 AM 57.0 °F - 54.0 °F 89% 30.08 in 5.0 mi Calm Calm - N/A   Clear
3:59 AM 55.9 °F - 53.1 °F 90% 30.10 in 1.5 mi Calm Calm - N/A   Clear
4:12 AM 57.9 °F - 54.0 °F 87% 30.10 in 3.0 mi Calm Calm - N/A   Clear
4:15 AM 57.9 °F - 53.1 °F 84% 30.10 in 1.8 mi Calm Calm - N/A   Haze
4:32 AM 57.0 °F - 54.0 °F 89% 30.10 in 2.0 mi Calm Calm - N/A   Partly Cloudy
4:39 AM 55.9 °F - 52.0 °F 87% 30.10 in 4.0 mi Calm Calm - N/A   Scattered Clouds
5:02 AM 57.0 °F - 55.0 °F 93% 30.10 in 2.5 mi Calm Calm - N/A   Partly Cloudy
5:10 AM 57.0 °F - 54.0 °F 89% 30.10 in 5.0 mi Calm Calm - N/A   Clear
5:19 AM 57.0 °F - 54.0 °F 89% 30.10 in 6.0 mi Calm Calm - N/A   Partly Cloudy
5:33 AM 57.0 °F - 54.0 °F 89% 30.10 in 7.0 mi Calm Calm - N/A   Mostly Cloudy
5:41 AM 55.9 °F - 54.0 °F 93% 30.10 in 0.8 mi Calm Calm - N/A   Overcast
5:49 AM 57.2 °F - 53.6 °F 88% 30.10 in 0.2 mi Calm Calm - N/A Fog Fog
5:53 AM 57.9 °F - 55.0 °F 90% 30.08 in 1.5 mi Calm Calm - N/A   Overcast
5:55 AM 57.9 °F - 55.0 °F 90% 30.10 in 3.0 mi Calm Calm - N/A   Overcast
6:02 AM 57.0 °F - 55.0 °F 93% 30.10 in 2.0 mi Calm Calm - N/A   Overcast
6:06 AM 57.0 °F - 54.0 °F 89% 30.10 in 0.8 mi Calm Calm - N/A   Overcast
6:23 AM 57.9 °F - 55.9 °F 93% 30.10 in 0.2 mi Calm Calm - N/A Fog Fog
6:53 AM 59.0 °F - 57.0 °F 93% 30.08 in 0.2 mi Calm Calm - N/A Fog Fog
7:10 AM 60.1 °F - 57.0 °F 90% 30.11 in 1.0 mi Calm Calm - N/A   Mist
7:33 AM 60.1 °F - 57.9 °F 93% 30.11 in 1.0 mi Calm Calm - N/A   Clear
7:40 AM 60.1 °F - 57.9 °F 93% 30.11 in 5.0 mi Calm Calm - N/A   Scattered Clouds
7:53 AM 60.1 °F - 57.9 °F 93% 30.09 in 5.0 mi Calm Calm - N/A   Scattered Clouds
8:53 AM 66.0 °F - 60.1 °F 81% 30.09 in 9.0 mi Calm Calm - N/A   Clear
9:53 AM 70.0 °F - 61.0 °F 73% 30.07 in 10.0 mi West 3.5 mph - N/A   Clear
10:53 AM 73.0 °F - 62.1 °F 68% 30.08 in 10.0 mi West 4.6 mph - N/A   Clear
11:53 AM 79.0 °F - 55.9 °F 45% 30.05 in 10.0 mi South 8.1 mph - N/A   Clear
1:53 PM 80.1 °F 80.6 °F 57.9 °F 47% 30.03 in 10.0 mi SSE 12.7 mph - N/A   Mostly Cloudy
2:53 PM 80.1 °F 80.4 °F 57.0 °F 45% 30.01 in 10.0 mi SSE 12.7 mph 23.0 mph N/A   Partly Cloudy
3:53 PM 77.0 °F - 57.0 °F 50% 30.01 in 10.0 mi SE 6.9 mph - N/A   Mostly Cloudy
4:53 PM 77.0 °F - 59.0 °F 54% 30.01 in 10.0 mi South 6.9 mph - N/A   Scattered Clouds
5:53 PM 75.9 °F - 57.0 °F 52% 30.00 in 10.0 mi SSE 8.1 mph - N/A   Clear
6:53 PM 73.0 °F - 59.0 °F 61% 30.00 in 10.0 mi Variable 3.5 mph - N/A   Clear
7:53 PM 73.0 °F - 57.9 °F 59% 29.98 in 10.0 mi SE 4.6 mph - N/A   Partly Cloudy
8:53 PM 72.0 °F - 59.0 °F 64% 29.99 in 10.0 mi SSE 5.8 mph - N/A   Clear
9:53 PM 70.0 °F - 59.0 °F 68% 29.99 in 10.0 mi Calm Calm - N/A   Clear
10:53 PM 70.0 °F - 59.0 °F 68% 29.98 in 10.0 mi Calm Calm - N/A   Overcast
11:53 PM 70.0 °F - 60.1 °F 71% 29.96 in 10.0 mi Variable 5.8 mph - N/A   Mostly Cloudy